sat.trackr.live / text

‹ back to catalog

STARLINK-30514

NORAD 58028 · 2023-156A

PAYLOAD ACTIVE UNKNOWN

§ Identity

Operator
Country
US
Launch date
2023-10-09
Launch site
AFWTR
Launch vehicle
Mass (kg)
RCS (m²)

Purposes: comms

External: N2YO · Heavens-Above · Gunter

§ Orbital elements

Epoch: 2026-09-20T09:08:23.949600Z

Period
93.85 min
Inclination
53.1591°
Eccentricity
0.0001374
Mean motion
15.34389989 rev/d
Perigee alt
461.8 km
Apogee alt
463.7 km
Semi-major
6,840.9 km
B*
3.8981e-5
RAAN
251.9614°
Arg perigee
83.5915°
Mean anomaly
276.5244°
Rev number
16,615

§ Raw data

STARLINK-305141 58028U 23156A   26263.38083275  .00000941  00000+0  38981-4 0  99912 58028  53.1591 251.9614 0001374  83.5915 276.5244 15.34389989166151

JSON: /api/v1/satellites/58028 · /tle

For live sub-satellite position, see the globe view (requires WebGL).

§ Visibility from observer

Set your observer location to see the next 7 days of passes ≥ 10°. The values pass through the URL so the page stays shareable.

No JS? Fill the form by hand. The geolocation button needs JavaScript.